| time (UTC) | temp F | wind direction | speed MPH | gust MPH | rain 1hr in | rain 24hr in | rain mn in | humidity % | barometer mb |
| 20260510070004 | 73 | 178 | 2.0 | 5.0 | 0.00 | 0.00 | 0.00 | 76 | 1009.0 |
| 20260510064509 | 72 | 250 | 2.0 | 4.0 | 0.00 | 0.00 | 0.00 | 76 | 1009.2 |
| 20260510063003 | 72 | 250 | 1.0 | 4.0 | 0.00 | 0.00 | 0.00 | 77 | 1009.2 |
| 20260510061502 | 71 | 253 | 3.0 | 7.0 | 0.00 | 0.00 | 0.00 | 80 | 1009.3 |
| 20260510060100 | 69 | 179 | 2.0 | 4.0 | 0.00 | 0.00 | 0.00 | 80 | 1009.2 |
| 20260510054601 | 70 | 177 | 0.0 | 0.0 | 0.00 | 0.00 | 0.00 | 78 | 1009.1 |
| 20260510053054 | 72 | 177 | 0.0 | 2.0 | 0.00 | 0.00 | 0.00 | 75 | 1009.1 |
| 20260510051553 | 73 | 177 | 0.0 | 1.0 | 0.00 | 0.00 | 0.00 | 73 | 1009.0 |
| 20260510050047 | 74 | 177 | 1.0 | 3.0 | 0.00 | 0.00 | 0.00 | 72 | 1008.9 |
| 20260510044545 | 76 | 177 | 1.0 | 3.0 | 0.00 | 0.00 | 0.00 | 70 | 1008.8 |
| 20260510043045 | 77 | 177 | 0.0 | 5.0 | 0.00 | 0.00 | 0.00 | 68 | 1008.8 |
| 20260510041544 | 78 | 175 | 2.0 | 7.0 | 0.00 | 0.00 | 0.00 | 67 | 1008.7 |
| 20260510040047 | 78 | 208 | 1.0 | 5.0 | 0.00 | 0.00 | 0.00 | 67 | 1008.6 |
| 20260510034601 | 78 | 202 | 5.0 | 9.0 | 0.00 | 0.00 | 0.00 | 66 | 1008.4 |
| 20260510033048 | 78 | 229 | 3.0 | 7.0 | 0.00 | 0.00 | 0.00 | 66 | 1008.3 |
| 20260510031542 | 77 | 215 | 2.0 | 10.0 | 0.00 | 0.00 | 0.00 | 67 | 1008.1 |
| 20260510030041 | 76 | 205 | 2.0 | 5.0 | 0.00 | 0.00 | 0.00 | 67 | 1008.0 |
| 20260510024542 | 77 | 205 | 1.0 | 3.0 | 0.00 | 0.00 | 0.00 | 65 | 1007.9 |
| 20260510023041 | 79 | 205 | 0.0 | 0.0 | 0.00 | 0.00 | 0.00 | 62 | 1007.6 |
| 20260510021541 | 81 | 205 | 0.0 | 1.0 | 0.00 | 0.00 | 0.00 | 59 | 1007.3 |
| 20260510020040 | 82 | 205 | 0.0 | 4.0 | 0.00 | 0.00 | 0.00 | 56 | 1007.1 |
| 20260510014543 | 83 | 205 | 1.0 | 6.0 | 0.00 | 0.00 | 0.00 | 54 | 1006.9 |
| 20260510013039 | 84 | 207 | 0.0 | 4.0 | 0.00 | 0.00 | 0.00 | 53 | 1006.6 |
| 20260510011538 | 84 | 207 | 2.0 | 7.0 | 0.00 | 0.00 | 0.00 | 52 | 1006.5 |
| 20260510010040 | 85 | 209 | 3.0 | 7.0 | 0.00 | 0.00 | 0.00 | 50 | 1006.4 |
| 20260510004536 | 86 | 211 | 2.0 | 7.0 | 0.00 | 0.00 | 0.00 | 48 | 1006.3 |
| 20260510003037 | 87 | 220 | 4.0 | 8.0 | 0.00 | 0.00 | 0.00 | 47 | 1006.2 |
| 20260510001535 | 89 | 205 | 2.0 | 6.0 | 0.00 | 0.00 | 0.00 | 44 | 1006.1 |
| 20260510000033 | 90 | 166 | 3.0 | 7.0 | 0.00 | 0.00 | 0.00 | 42 | 1006.1 |
| 20260509234533 | 92 | 254 | 1.0 | 3.0 | 0.00 | 0.00 | 0.00 | 38 | 1006.1 |
| 20260509233033 | 92 | 254 | 1.0 | 4.0 | 0.00 | 0.00 | 0.00 | 37 | 1006.0 |
| 20260509231534 | 91 | 209 | 0.0 | 2.0 | 0.00 | 0.00 | 0.00 | 39 | 1006.1 |
| 20260509230029 | 92 | 207 | 3.0 | 8.0 | 0.00 | 0.00 | 0.00 | 39 | 1006.1 |
| 20260509224529 | 93 | 174 | 5.0 | 10.0 | 0.00 | 0.00 | 0.00 | 38 | 1006.1 |
| 20260509223028 | 93 | 253 | 2.0 | 11.0 | 0.00 | 0.00 | 0.00 | 39 | 1006.2 |
| 20260509221526 | 94 | 185 | 4.0 | 11.0 | 0.00 | 0.00 | 0.00 | 39 | 1006.2 |
| 20260509220037 | 92 | 164 | 3.0 | 9.0 | 0.00 | 0.00 | 0.00 | 39 | 1006.3 |
| 20260509214521 | 93 | 182 | 6.0 | 14.0 | 0.00 | 0.00 | 0.00 | 39 | 1006.4 |
| 20260509213020 | 93 | 325 | 1.0 | 6.0 | 0.00 | 0.00 | 0.00 | 38 | 1006.6 |
| 20260509211519 | 94 | 228 | 4.0 | 9.0 | 0.00 | 0.00 | 0.00 | 42 | 1006.8 |
| 20260509210014 | 92 | 192 | 3.0 | 11.0 | 0.00 | 0.00 | 0.00 | 42 | 1007.0 |
| 20260509204513 | 92 | 189 | 5.0 | 13.0 | 0.00 | 0.00 | 0.00 | 44 | 1007.3 |
| 20260509203023 | 92 | 236 | 6.0 | 12.0 | 0.00 | 0.00 | 0.00 | 42 | 1007.6 |
| 20260509201508 | 92 | 126 | 2.0 | 9.0 | 0.00 | 0.00 | 0.00 | 41 | 1007.8 |
| 20260509200004 | 92 | 201 | 4.0 | 12.0 | 0.00 | 0.00 | 0.00 | 43 | 1008.1 |
| 20260509194500 | 91 | 236 | 3.0 | 9.0 | 0.00 | 0.00 | 0.00 | 46 | 1008.2 |
| 20260509193103 | 90 | 250 | 2.0 | 7.0 | 0.00 | 0.00 | 0.00 | 48 | 1008.4 |
| 20260509191559 | 89 | 191 | 4.0 | 11.0 | 0.00 | 0.00 | 0.00 | 50 | 1008.6 |
| 20260509190057 | 90 | 147 | 4.0 | 10.0 | 0.00 | 0.00 | 0.00 | 49 | 1008.8 |
| 20260509184553 | 88 | 185 | 5.0 | 10.0 | 0.00 | 0.00 | 0.00 | 52 | 1009.1 |
| 20260509183102 | 87 | 223 | 4.0 | 10.0 | 0.00 | 0.00 | 0.00 | 53 | 1009.3 |
| 20260509181551 | 88 | 144 | 6.0 | 12.0 | 0.00 | 0.00 | 0.00 | 54 | 1009.5 |
| 20260509180047 | 87 | 152 | 4.0 | 10.0 | 0.00 | 0.00 | 0.00 | 54 | 1009.7 |
| 20260509174550 | 86 | 208 | 6.0 | 11.0 | 0.00 | 0.00 | 0.00 | 59 | 1009.9 |
| 20260509173045 | 85 | 228 | 6.0 | 10.0 | 0.00 | 0.00 | 0.00 | 59 | 1010.1 |
| 20260509171544 | 83 | 198 | 4.0 | 10.0 | 0.00 | 0.00 | 0.00 | 65 | 1010.1 |
| 20260509170038 | 83 | 164 | 4.0 | 11.0 | 0.00 | 0.00 | 0.00 | 67 | 1010.1 |
| 20260509164537 | 83 | 203 | 6.0 | 13.0 | 0.00 | 0.00 | 0.00 | 66 | 1010.1 |
| 20260509163044 | 82 | 184 | 3.0 | 8.0 | 0.00 | 0.00 | 0.00 | 70 | 1010.2 |
| 20260509161541 | 80 | 198 | 2.0 | 6.0 | 0.00 | 0.00 | 0.00 | 74 | 1010.4 |
| 20260509160028 | 78 | 199 | 4.0 | 10.0 | 0.00 | 0.00 | 0.00 | 79 | 1010.4 |
| 20260509154524 | 76 | 195 | 3.0 | 7.0 | 0.00 | 0.00 | 0.00 | 80 | 1010.5 |
| 20260509153040 | 75 | 192 | 4.0 | 9.0 | 0.00 | 0.00 | 0.00 | 82 | 1010.4 |
| 20260509151519 | 74 | 99 | 1.0 | 7.0 | 0.00 | 0.00 | 0.00 | 83 | 1010.5 |
| 20260509150024 | 74 | 51 | 2.0 | 4.0 | 0.00 | 0.00 | 0.00 | 84 | 1010.5 |
| 20260509144513 | 73 | 44 | 2.0 | 5.0 | 0.00 | 0.00 | 0.00 | 85 | 1010.7 |
| 20260509143009 | 71 | 39 | 0.0 | 3.0 | 0.00 | 0.00 | 0.00 | 86 | 1010.7 |
| 20260509141505 | 70 | 39 | 0.0 | 3.0 | 0.00 | 0.00 | 0.00 | 87 | 1010.9 |
| 20260509140002 | 70 | 39 | 1.0 | 6.0 | 0.00 | 0.00 | 0.00 | 87 | 1010.6 |
| 20260509134500 | 69 | 39 | 3.0 | 6.0 | 0.00 | 0.00 | 0.00 | 87 | 1010.7 |
| 20260509133059 | 69 | 39 | 0.0 | 3.0 | 0.00 | 0.00 | 0.00 | 87 | 1010.5 |
| 20260509131559 | 69 | 39 | 2.0 | 6.0 | 0.00 | 0.00 | 0.00 | 87 | 1010.6 |
| 20260509130057 | 68 | 40 | 1.0 | 4.0 | 0.00 | 0.00 | 0.00 | 88 | 1010.6 |
| 20260509124556 | 68 | 40 | 2.0 | 9.0 | 0.00 | 0.00 | 0.00 | 87 | 1010.5 |
| 20260509123118 | 68 | 28 | 7.0 | 11.0 | 0.00 | 0.00 | 0.00 | 87 | 1010.5 |
| 20260509121559 | 68 | 23 | 6.0 | 10.0 | 0.00 | 0.00 | 0.00 | 87 | 1010.6 |
| 20260509120054 | 68 | 27 | 8.0 | 12.0 | 0.00 | 0.00 | 0.00 | 88 | 1010.5 |
| 20260509114552 | 69 | 20 | 7.0 | 10.0 | 0.00 | 0.00 | 0.00 | 87 | 1010.4 |
| 20260509113050 | 69 | 355 | 4.0 | 8.0 | 0.00 | 0.00 | 0.00 | 88 | 1010.0 |
| 20260509111551 | 69 | 345 | 2.0 | 5.0 | 0.00 | 0.00 | 0.00 | 88 | 1009.6 |
| 20260509110048 | 69 | 344 | 3.0 | 5.0 | 0.00 | 0.00 | 0.00 | 87 | 1009.4 |
| 20260509104548 | 68 | 344 | 2.0 | 4.0 | 0.00 | 0.00 | 0.00 | 87 | 1009.3 |
| 20260509103053 | 68 | 344 | 2.0 | 4.0 | 0.00 | 0.00 | 0.00 | 87 | 1009.2 |
| 20260509101547 | 68 | 344 | 1.0 | 4.0 | 0.00 | 0.00 | 0.00 | 87 | 1009.1 |
| 20260509100051 | 68 | 343 | 3.0 | 6.0 | 0.00 | 0.00 | 0.00 | 87 | 1008.8 |
| 20260509094545 | 68 | 321 | 1.0 | 6.0 | 0.00 | 0.00 | 0.00 | 87 | 1008.8 |
| 20260509093045 | 68 | 236 | 2.0 | 4.0 | 0.00 | 0.00 | 0.00 | 87 | 1008.7 |
| 20260509091543 | 68 | 236 | 1.0 | 4.0 | 0.00 | 0.00 | 0.00 | 87 | 1008.6 |
| 20260509090048 | 68 | 236 | 0.0 | 4.0 | 0.00 | 0.00 | 0.00 | 87 | 1008.5 |
| 20260509084539 | 67 | 227 | 1.0 | 3.0 | 0.00 | 0.00 | 0.00 | 87 | 1008.6 |
| 20260509083037 | 67 | 227 | 0.0 | 0.0 | 0.00 | 0.00 | 0.00 | 87 | 1009.0 |
| 20260509081534 | 67 | 227 | 0.0 | 0.0 | 0.00 | 0.00 | 0.00 | 87 | 1009.2 |
| 20260509080033 | 67 | 227 | 0.0 | 0.0 | 0.00 | 0.00 | 0.00 | 87 | 1009.4 |
| 20260509074534 | 67 | 227 | 0.0 | 0.0 | 0.00 | 0.00 | 0.00 | 87 | 1009.6 |
| 20260509073035 | 66 | 227 | 0.0 | 0.0 | 0.00 | 0.00 | 0.00 | 87 | 1009.7 |
| 20260509071532 | 66 | 227 | 0.0 | 3.0 | 0.00 | 0.00 | 0.00 | 87 | 1009.6 |